owner,sensor,date,latitude,longitude,sea_surface_height_above_sea_level,qcFlag 
TCOON,ioos:station:TCOON:009:1,2016-08-05T20:18:00Z,27.8398,-97.0727,1.89,1111122 
TCOON,ioos:station:TCOON:009:1,2016-08-05T21:18:00Z,27.8398,-97.0727,1.875,1111122 
TCOON,ioos:station:TCOON:009:1,2016-08-05T22:18:00Z,27.8398,-97.0727,1.917,1111122 
TCOON,ioos:station:TCOON:009:1,2016-08-05T23:18:00Z,27.8398,-97.0727,1.896,1111122 
TCOON,ioos:station:TCOON:009:1,2016-08-06T00:18:00Z,27.8398,-97.0727,1.836,1111122 
TCOON,ioos:station:TCOON:009:1,2016-08-06T01:18:00Z,27.8398,-97.0727,1.79,1111122 
TCOON,ioos:station:TCOON:009:1,2016-08-06T02:18:00Z,27.8398,-97.0727,1.769,1111122 
TCOON,ioos:station:TCOON:009:1,2016-08-06T03:18:00Z,27.8398,-97.0727,1.737,1111122 
TCOON,ioos:station:TCOON:009:1,2016-08-06T04:18:00Z,27.8398,-97.0727,1.714,1111122 
TCOON,ioos:station:TCOON:009:1,2016-08-06T05:12:00Z,27.8398,-97.0727,1.708,1111122 
TCOON,ioos:station:TCOON:009:1,2016-08-06T06:18:00Z,27.8398,-97.0727,1.725,1111122 
TCOON,ioos:station:TCOON:009:1,2016-08-06T07:18:00Z,27.8398,-97.0727,1.749,1111122 
TCOON,ioos:station:TCOON:009:1,2016-08-06T08:18:00Z,27.8398,-97.0727,1.768,1111122 
TCOON,ioos:station:TCOON:009:1,2016-08-06T09:18:00Z,27.8398,-97.0727,1.773,1111122 
TCOON,ioos:station:TCOON:009:1,2016-08-06T10:18:00Z,27.8398,-97.0727,1.864,1111122 
TCOON,ioos:station:TCOON:009:1,2016-08-06T11:18:00Z,27.8398,-97.0727,1.879,1111122 
TCOON,ioos:station:TCOON:009:1,2016-08-06T12:18:00Z,27.8398,-97.0727,1.872,1111122 
TCOON,ioos:station:TCOON:009:1,2016-08-06T13:18:00Z,27.8398,-97.0727,1.84,1111122 
TCOON,ioos:station:TCOON:009:1,2016-08-06T14:18:00Z,27.8398,-97.0727,1.836,1111122 
TCOON,ioos:station:TCOON:009:1,2016-08-06T15:18:00Z,27.8398,-97.0727,1.83,1111122 
TCOON,ioos:station:TCOON:009:1,2016-08-06T16:18:00Z,27.8398,-97.0727,1.821,1111122 
TCOON,ioos:station:TCOON:009:1,2016-08-06T17:18:00Z,27.8398,-97.0727,1.809,1111122 
TCOON,ioos:station:TCOON:009:1,2016-08-06T18:18:00Z,27.8398,-97.0727,1.813,1111122 
TCOON,ioos:station:TCOON:009:1,2016-08-06T19:18:00Z,27.8398,-97.0727,1.79,1111122 
TCOON,ioos:station:TCOON:009:1,2016-08-06T20:18:00Z,27.8398,-97.0727,1.839,1111122 
TCOON,ioos:station:TCOON:009:1,2016-08-06T21:18:00Z,27.8398,-97.0727,1.835,1111122 
TCOON,ioos:station:TCOON:009:1,2016-08-06T22:18:00Z,27.8398,-97.0727,1.88,1111122 
TCOON,ioos:station:TCOON:009:1,2016-08-06T23:18:00Z,27.8398,-97.0727,1.862,1111122 
TCOON,ioos:station:TCOON:009:1,2016-08-07T00:18:00Z,27.8398,-97.0727,1.831,1111122 
TCOON,ioos:station:TCOON:009:1,2016-08-07T01:18:00Z,27.8398,-97.0727,1.683,1111122 
TCOON,ioos:station:TCOON:009:1,2016-08-07T02:18:00Z,27.8398,-97.0727,1.747,1111122 
TCOON,ioos:station:TCOON:009:1,2016-08-07T03:18:00Z,27.8398,-97.0727,1.742,1111122 
TCOON,ioos:station:TCOON:009:1,2016-08-07T04:18:00Z,27.8398,-97.0727,1.738,1111122 
TCOON,ioos:station:TCOON:009:1,2016-08-07T05:18:00Z,27.8398,-97.0727,1.733,1111122 
TCOON,ioos:station:TCOON:009:1,2016-08-07T06:18:00Z,27.8398,-97.0727,1.759,1111122 
TCOON,ioos:station:TCOON:009:1,2016-08-07T07:18:00Z,27.8398,-97.0727,1.752,1111122 
TCOON,ioos:station:TCOON:009:1,2016-08-07T08:18:00Z,27.8398,-97.0727,1.789,1111122 
TCOON,ioos:station:TCOON:009:1,2016-08-07T09:12:00Z,27.8398,-97.0727,1.803,1111122 
TCOON,ioos:station:TCOON:009:1,2016-08-07T10:18:00Z,27.8398,-97.0727,1.861,1111122 
TCOON,ioos:station:TCOON:009:1,2016-08-07T11:18:00Z,27.8398,-97.0727,1.873,1111122 
TCOON,ioos:station:TCOON:009:1,2016-08-07T12:12:00Z,27.8398,-97.0727,1.866,1111122 
TCOON,ioos:station:TCOON:009:1,2016-08-07T13:18:00Z,27.8398,-97.0727,1.83,1111122 
TCOON,ioos:station:TCOON:009:1,2016-08-07T14:18:00Z,27.8398,-97.0727,1.852,1111122 
TCOON,ioos:station:TCOON:009:1,2016-08-07T15:18:00Z,27.8398,-97.0727,1.847,1111122 
TCOON,ioos:station:TCOON:009:1,2016-08-07T16:12:00Z,27.8398,-97.0727,1.819,1111122 
TCOON,ioos:station:TCOON:009:1,2016-08-07T17:18:00Z,27.8398,-97.0727,1.789,1111122 
TCOON,ioos:station:TCOON:009:1,2016-08-07T18:18:00Z,27.8398,-97.0727,1.788,1111122 
TCOON,ioos:station:TCOON:009:1,2016-08-07T19:18:00Z,27.8398,-97.0727,1.779,1111122 
TCOON,ioos:station:TCOON:009:1,2016-08-07T20:18:00Z,27.8398,-97.0727,1.748,1111122 
TCOON,ioos:station:TCOON:009:1,2016-08-07T21:18:00Z,27.8398,-97.0727,1.798,1111122 
TCOON,ioos:station:TCOON:009:1,2016-08-07T22:18:00Z,27.8398,-97.0727,1.809,1111122 
TCOON,ioos:station:TCOON:009:1,2016-08-07T23:18:00Z,27.8398,-97.0727,1.817,1111122 
TCOON,ioos:station:TCOON:009:1,2016-08-08T00:18:00Z,27.8398,-97.0727,1.801,1111122 
TCOON,ioos:station:TCOON:009:1,2016-08-08T01:18:00Z,27.8398,-97.0727,1.812,1111122 
TCOON,ioos:station:TCOON:009:1,2016-08-08T02:18:00Z,27.8398,-97.0727,1.798,1111122 
TCOON,ioos:station:TCOON:009:1,2016-08-08T03:18:00Z,27.8398,-97.0727,1.768,1111122 
TCOON,ioos:station:TCOON:009:1,2016-08-08T04:18:00Z,27.8398,-97.0727,1.774,1111122 
TCOON,ioos:station:TCOON:009:1,2016-08-08T05:18:00Z,27.8398,-97.0727,1.752,1111122 
TCOON,ioos:station:TCOON:009:1,2016-08-08T06:18:00Z,27.8398,-97.0727,1.754,1111122 
TCOON,ioos:station:TCOON:009:1,2016-08-08T07:18:00Z,27.8398,-97.0727,1.743,1111122 
TCOON,ioos:station:TCOON:009:1,2016-08-08T08:18:00Z,27.8398,-97.0727,1.751,1111122 
TCOON,ioos:station:TCOON:009:1,2016-08-08T09:18:00Z,27.8398,-97.0727,1.794,1111122 
TCOON,ioos:station:TCOON:009:1,2016-08-08T10:18:00Z,27.8398,-97.0727,1.801,1111122 
TCOON,ioos:station:TCOON:009:1,2016-08-08T11:18:00Z,27.8398,-97.0727,1.826,1111122 
TCOON,ioos:station:TCOON:009:1,2016-08-08T12:18:00Z,27.8398,-97.0727,1.837,1111122 
TCOON,ioos:station:TCOON:009:1,2016-08-08T13:18:00Z,27.8398,-97.0727,1.811,1111122 
TCOON,ioos:station:TCOON:009:1,2016-08-08T14:18:00Z,27.8398,-97.0727,1.802,1111122 
TCOON,ioos:station:TCOON:009:1,2016-08-08T15:18:00Z,27.8398,-97.0727,1.815,1111122 
TCOON,ioos:station:TCOON:009:1,2016-08-08T16:18:00Z,27.8398,-97.0727,1.874,1111122 
TCOON,ioos:station:TCOON:009:1,2016-08-08T17:18:00Z,27.8398,-97.0727,1.731,1111122 
TCOON,ioos:station:TCOON:009:1,2016-08-08T18:18:00Z,27.8398,-97.0727,1.73,1111122 
TCOON,ioos:station:TCOON:009:1,2016-08-08T19:18:00Z,27.8398,-97.0727,1.704,1111122 
TCOON,ioos:station:TCOON:009:1,2016-08-08T20:18:00Z,27.8398,-97.0727,1.721,1111122 
TCOON,ioos:station:TCOON:009:1,2016-08-08T21:18:00Z,27.8398,-97.0727,1.717,1111122 
TCOON,ioos:station:TCOON:009:1,2016-08-08T22:18:00Z,27.8398,-97.0727,1.748,1111122 
TCOON,ioos:station:TCOON:009:1,2016-08-08T23:18:00Z,27.8398,-97.0727,1.795,1111122 
TCOON,ioos:station:TCOON:009:1,2016-08-09T00:18:00Z,27.8398,-97.0727,1.66,1111122 
TCOON,ioos:station:TCOON:009:1,2016-08-09T01:18:00Z,27.8398,-97.0727,1.79,1111122 
TCOON,ioos:station:TCOON:009:1,2016-08-09T02:12:00Z,27.8398,-97.0727,1.796,1111122 
TCOON,ioos:station:TCOON:009:1,2016-08-09T03:18:00Z,27.8398,-97.0727,1.757,1111122 
TCOON,ioos:station:TCOON:009:1,2016-08-09T04:18:00Z,27.8398,-97.0727,1.828,1111122 
TCOON,ioos:station:TCOON:009:1,2016-08-09T05:18:00Z,27.8398,-97.0727,1.805,1111122 
TCOON,ioos:station:TCOON:009:1,2016-08-09T06:18:00Z,27.8398,-97.0727,1.805,1111122 
TCOON,ioos:station:TCOON:009:1,2016-08-09T07:18:00Z,27.8398,-97.0727,1.832,1111122 
TCOON,ioos:station:TCOON:009:1,2016-08-09T08:18:00Z,27.8398,-97.0727,1.831,1111122 
TCOON,ioos:station:TCOON:009:1,2016-08-09T09:18:00Z,27.8398,-97.0727,1.858,1111122 
TCOON,ioos:station:TCOON:009:1,2016-08-09T10:18:00Z,27.8398,-97.0727,1.864,1111122 
TCOON,ioos:station:TCOON:009:1,2016-08-09T11:18:00Z,27.8398,-97.0727,1.868,1111122 
TCOON,ioos:station:TCOON:009:1,2016-08-09T12:18:00Z,27.8398,-97.0727,1.837,1111122 
TCOON,ioos:station:TCOON:009:1,2016-08-09T13:18:00Z,27.8398,-97.0727,1.845,1111122 
TCOON,ioos:station:TCOON:009:1,2016-08-11T16:18:00Z,27.8398,-97.0727,1.657,1111122 
TCOON,ioos:station:TCOON:009:1,2016-08-11T17:18:00Z,27.8398,-97.0727,1.641,1111122 
TCOON,ioos:station:TCOON:009:1,2016-08-11T19:36:00Z,27.8398,-97.0727,1.553,1111122 
TCOON,ioos:station:TCOON:009:1,2016-08-11T20:18:00Z,27.8398,-97.0727,1.531,1111122 
TCOON,ioos:station:TCOON:009:1,2016-08-11T21:18:00Z,27.8398,-97.0727,1.527,1111122 
TCOON,ioos:station:TCOON:009:1,2016-08-11T22:18:00Z,27.8398,-97.0727,1.517,1111122 
TCOON,ioos:station:TCOON:009:1,2016-08-11T23:18:00Z,27.8398,-97.0727,1.526,1111122 
TCOON,ioos:station:TCOON:009:1,2016-08-12T00:36:00Z,27.8398,-97.0727,1.562,1111122 
TCOON,ioos:station:TCOON:009:1,2016-08-12T01:24:00Z,27.8398,-97.0727,1.592,1111122 
TCOON,ioos:station:TCOON:009:1,2016-08-12T02:18:00Z,27.8398,-97.0727,1.616,1111122 
TCOON,ioos:station:TCOON:009:1,2016-08-12T03:18:00Z,27.8398,-97.0727,1.651,1111122 
TCOON,ioos:station:TCOON:009:1,2016-08-12T04:18:00Z,27.8398,-97.0727,1.682,1111122 
TCOON,ioos:station:TCOON:009:1,2016-08-12T05:18:00Z,27.8398,-97.0727,1.665,1111122 
TCOON,ioos:station:TCOON:009:1,2016-08-12T06:12:00Z,27.8398,-97.0727,1.694,1111122 
TCOON,ioos:station:TCOON:009:1,2016-08-12T07:18:00Z,27.8398,-97.0727,1.704,1111122 
TCOON,ioos:station:TCOON:009:1,2016-08-12T08:18:00Z,27.8398,-97.0727,1.694,1111122 
TCOON,ioos:station:TCOON:009:1,2016-08-12T09:18:00Z,27.8398,-97.0727,1.693,1111122 
TCOON,ioos:station:TCOON:009:1,2016-08-12T10:18:00Z,27.8398,-97.0727,1.696,1111122 
TCOON,ioos:station:TCOON:009:1,2016-08-12T11:18:00Z,27.8398,-97.0727,1.699,1111122 
TCOON,ioos:station:TCOON:009:1,2016-08-12T12:18:00Z,27.8398,-97.0727,1.716,1111122 
TCOON,ioos:station:TCOON:009:1,2016-08-12T13:18:00Z,27.8398,-97.0727,1.693,1111122 
TCOON,ioos:station:TCOON:009:1,2016-08-12T14:18:00Z,27.8398,-97.0727,1.689,1111122 
TCOON,ioos:station:TCOON:009:1,2016-08-12T15:18:00Z,27.8398,-97.0727,1.662,1111122 
TCOON,ioos:station:TCOON:009:1,2016-08-12T16:18:00Z,27.8398,-97.0727,1.658,1111122 
TCOON,ioos:station:TCOON:009:1,2016-08-12T17:18:00Z,27.8398,-97.0727,1.518,1111122 
TCOON,ioos:station:TCOON:009:1,2016-08-12T18:18:00Z,27.8398,-97.0727,1.573,1111122 
TCOON,ioos:station:TCOON:009:1,2016-08-12T19:18:00Z,27.8398,-97.0727,1.53,1111122 
TCOON,ioos:station:TCOON:009:1,2016-08-12T20:18:00Z,27.8398,-97.0727,1.513,1111122 
TCOON,ioos:station:TCOON:009:1,2016-08-12T21:18:00Z,27.8398,-97.0727,1.463,1111122 
TCOON,ioos:station:TCOON:009:1,2016-08-12T22:18:00Z,27.8398,-97.0727,1.424,1111122 
TCOON,ioos:station:TCOON:009:1,2016-08-12T23:18:00Z,27.8398,-97.0727,1.461,1111122 
TCOON,ioos:station:TCOON:009:1,2016-08-13T00:18:00Z,27.8398,-97.0727,1.456,1111122 
TCOON,ioos:station:TCOON:009:1,2016-08-13T01:18:00Z,27.8398,-97.0727,1.467,1111122 
TCOON,ioos:station:TCOON:009:1,2016-08-13T02:18:00Z,27.8398,-97.0727,1.525,1111122 
TCOON,ioos:station:TCOON:009:1,2016-08-13T03:18:00Z,27.8398,-97.0727,1.556,1111122 
TCOON,ioos:station:TCOON:009:1,2016-08-13T04:18:00Z,27.8398,-97.0727,1.605,1111122 
TCOON,ioos:station:TCOON:009:1,2016-08-13T05:18:00Z,27.8398,-97.0727,1.646,1111122 
TCOON,ioos:station:TCOON:009:1,2016-08-13T06:18:00Z,27.8398,-97.0727,1.621,1111122 
TCOON,ioos:station:TCOON:009:1,2016-08-13T07:18:00Z,27.8398,-97.0727,1.659,1111122 
TCOON,ioos:station:TCOON:009:1,2016-08-13T08:18:00Z,27.8398,-97.0727,1.667,1111122 
TCOON,ioos:station:TCOON:009:1,2016-08-13T09:12:00Z,27.8398,-97.0727,1.648,1111122 
TCOON,ioos:station:TCOON:009:1,2016-08-13T10:18:00Z,27.8398,-97.0727,1.677,1111122 
TCOON,ioos:station:TCOON:009:1,2016-08-13T11:18:00Z,27.8398,-97.0727,1.696,1111122 
TCOON,ioos:station:TCOON:009:1,2016-08-13T12:18:00Z,27.8398,-97.0727,1.694,1111122 
TCOON,ioos:station:TCOON:009:1,2016-08-13T13:18:00Z,27.8398,-97.0727,1.678,1111122 
TCOON,ioos:station:TCOON:009:1,2016-08-13T14:18:00Z,27.8398,-97.0727,1.648,1111122 
TCOON,ioos:station:TCOON:009:1,2016-08-13T15:18:00Z,27.8398,-97.0727,1.665,1111122 
TCOON,ioos:station:TCOON:009:1,2016-08-13T16:18:00Z,27.8398,-97.0727,1.652,1111122 
TCOON,ioos:station:TCOON:009:1,2016-08-13T17:18:00Z,27.8398,-97.0727,1.64,1111122 
TCOON,ioos:station:TCOON:009:1,2016-08-13T18:18:00Z,27.8398,-97.0727,1.588,1111122 
TCOON,ioos:station:TCOON:009:1,2016-08-13T19:18:00Z,27.8398,-97.0727,1.522,1111122 
TCOON,ioos:station:TCOON:009:1,2016-08-13T20:18:00Z,27.8398,-97.0727,1.501,1111122 
TCOON,ioos:station:TCOON:009:1,2016-08-13T21:18:00Z,27.8398,-97.0727,1.433,1111122 
TCOON,ioos:station:TCOON:009:1,2016-08-13T22:18:00Z,27.8398,-97.0727,1.425,1111122 
TCOON,ioos:station:TCOON:009:1,2016-08-13T23:18:00Z,27.8398,-97.0727,1.425,1111122 
TCOON,ioos:station:TCOON:009:1,2016-08-14T00:18:00Z,27.8398,-97.0727,1.38,1111122 
TCOON,ioos:station:TCOON:009:1,2016-08-14T01:18:00Z,27.8398,-97.0727,1.423,1111122 
TCOON,ioos:station:TCOON:009:1,2016-08-14T02:18:00Z,27.8398,-97.0727,1.472,1111122 
TCOON,ioos:station:TCOON:009:1,2016-08-14T03:18:00Z,27.8398,-97.0727,1.545,1111122 
TCOON,ioos:station:TCOON:009:1,2016-08-14T04:18:00Z,27.8398,-97.0727,1.561,1111122 
TCOON,ioos:station:TCOON:009:1,2016-08-14T05:18:00Z,27.8398,-97.0727,1.64,1111122 
TCOON,ioos:station:TCOON:009:1,2016-08-14T06:18:00Z,27.8398,-97.0727,1.677,1111122 
TCOON,ioos:station:TCOON:009:1,2016-08-14T07:18:00Z,27.8398,-97.0727,1.673,1111122 
TCOON,ioos:station:TCOON:009:1,2016-08-14T08:18:00Z,27.8398,-97.0727,1.663,1111122 
TCOON,ioos:station:TCOON:009:1,2016-08-14T09:18:00Z,27.8398,-97.0727,1.689,1111122 
TCOON,ioos:station:TCOON:009:1,2016-08-14T10:18:00Z,27.8398,-97.0727,1.678,1111122 
TCOON,ioos:station:TCOON:009:1,2016-08-14T11:18:00Z,27.8398,-97.0727,1.711,1111122 
TCOON,ioos:station:TCOON:009:1,2016-08-14T12:18:00Z,27.8398,-97.0727,1.733,1111122 
TCOON,ioos:station:TCOON:009:1,2016-08-14T13:18:00Z,27.8398,-97.0727,1.729,1111122 
TCOON,ioos:station:TCOON:009:1,2016-08-14T14:18:00Z,27.8398,-97.0727,1.709,1111122 
TCOON,ioos:station:TCOON:009:1,2016-08-14T15:18:00Z,27.8398,-97.0727,1.725,1111122 
TCOON,ioos:station:TCOON:009:1,2016-08-14T16:18:00Z,27.8398,-97.0727,1.722,1111122 
TCOON,ioos:station:TCOON:009:1,2016-08-14T17:18:00Z,27.8398,-97.0727,1.686,1111122 
TCOON,ioos:station:TCOON:009:1,2016-08-14T18:18:00Z,27.8398,-97.0727,1.627,1111122 
TCOON,ioos:station:TCOON:009:1,2016-08-14T19:18:00Z,27.8398,-97.0727,1.633,1111122 
TCOON,ioos:station:TCOON:009:1,2016-08-14T20:18:00Z,27.8398,-97.0727,1.591,1111122 
TCOON,ioos:station:TCOON:009:1,2016-08-14T21:18:00Z,27.8398,-97.0727,1.564,1111122 
TCOON,ioos:station:TCOON:009:1,2016-08-14T22:18:00Z,27.8398,-97.0727,1.468,1111122 
TCOON,ioos:station:TCOON:009:1,2016-08-14T23:18:00Z,27.8398,-97.0727,1.484,1111122 
TCOON,ioos:station:TCOON:009:1,2016-08-15T00:18:00Z,27.8398,-97.0727,1.505,1111122 
TCOON,ioos:station:TCOON:009:1,2016-08-15T01:18:00Z,27.8398,-97.0727,1.467,1111122 
TCOON,ioos:station:TCOON:009:1,2016-08-15T02:18:00Z,27.8398,-97.0727,1.51,1111122 
TCOON,ioos:station:TCOON:009:1,2016-08-15T03:18:00Z,27.8398,-97.0727,1.543,1111122 
TCOON,ioos:station:TCOON:009:1,2016-08-15T04:18:00Z,27.8398,-97.0727,1.617,1111122 
TCOON,ioos:station:TCOON:009:1,2016-08-15T05:18:00Z,27.8398,-97.0727,1.657,1111122 
TCOON,ioos:station:TCOON:009:1,2016-08-15T06:18:00Z,27.8398,-97.0727,1.75,1111122 
TCOON,ioos:station:TCOON:009:1,2016-08-15T07:18:00Z,27.8398,-97.0727,1.772,1111122 
TCOON,ioos:station:TCOON:009:1,2016-08-15T08:18:00Z,27.8398,-97.0727,1.721,1111122 
TCOON,ioos:station:TCOON:009:1,2016-08-15T09:18:00Z,27.8398,-97.0727,1.764,1111122 
TCOON,ioos:station:TCOON:009:1,2016-08-15T10:18:00Z,27.8398,-97.0727,1.814,1111122 
TCOON,ioos:station:TCOON:009:1,2016-08-15T11:18:00Z,27.8398,-97.0727,1.764,1111122 
TCOON,ioos:station:TCOON:009:1,2016-08-15T12:18:00Z,27.8398,-97.0727,1.783,1111122 
TCOON,ioos:station:TCOON:009:1,2016-08-15T13:12:00Z,27.8398,-97.0727,1.775,1111122 
TCOON,ioos:station:TCOON:009:1,2016-08-15T14:18:00Z,27.8398,-97.0727,1.782,1111122 
TCOON,ioos:station:TCOON:009:1,2016-08-15T15:18:00Z,27.8398,-97.0727,1.78,1111122 
TCOON,ioos:station:TCOON:009:1,2016-08-15T16:18:00Z,27.8398,-97.0727,1.802,1111122 
TCOON,ioos:station:TCOON:009:1,2016-08-15T17:18:00Z,27.8398,-97.0727,1.794,1111122 
TCOON,ioos:station:TCOON:009:1,2016-08-15T18:18:00Z,27.8398,-97.0727,1.769,1111122 
TCOON,ioos:station:TCOON:009:1,2016-08-15T19:18:00Z,27.8398,-97.0727,1.735,1111122 
TCOON,ioos:station:TCOON:009:1,2016-08-15T20:18:00Z,27.8398,-97.0727,1.72,1111122 
TCOON,ioos:station:TCOON:009:1,2016-08-15T21:18:00Z,27.8398,-97.0727,1.634,1111122 
TCOON,ioos:station:TCOON:009:1,2016-08-15T22:18:00Z,27.8398,-97.0727,1.605,1111122 
TCOON,ioos:station:TCOON:009:1,2016-08-15T23:18:00Z,27.8398,-97.0727,1.555,1111122 
TCOON,ioos:station:TCOON:009:1,2016-08-16T00:18:00Z,27.8398,-97.0727,1.524,1111122 
TCOON,ioos:station:TCOON:009:1,2016-08-16T01:18:00Z,27.8398,-97.0727,1.529,1111122 
TCOON,ioos:station:TCOON:009:1,2016-08-16T02:18:00Z,27.8398,-97.0727,1.521,1111122 
TCOON,ioos:station:TCOON:009:1,2016-08-16T03:18:00Z,27.8398,-97.0727,1.551,1111122 
TCOON,ioos:station:TCOON:009:1,2016-08-16T04:18:00Z,27.8398,-97.0727,1.627,1111122 
TCOON,ioos:station:TCOON:009:1,2016-08-16T05:18:00Z,27.8398,-97.0727,1.756,1111122 
TCOON,ioos:station:TCOON:009:1,2016-08-16T06:18:00Z,27.8398,-97.0727,1.759,1111122 
TCOON,ioos:station:TCOON:009:1,2016-08-16T07:18:00Z,27.8398,-97.0727,1.793,1111122 
TCOON,ioos:station:TCOON:009:1,2016-08-16T08:18:00Z,27.8398,-97.0727,1.839,1111122 
TCOON,ioos:station:TCOON:009:1,2016-08-16T09:18:00Z,27.8398,-97.0727,1.835,1111122 
TCOON,ioos:station:TCOON:009:1,2016-08-16T10:12:00Z,27.8398,-97.0727,1.845,1111122 
TCOON,ioos:station:TCOON:009:1,2016-08-16T11:18:00Z,27.8398,-97.0727,1.787,1111122 
TCOON,ioos:station:TCOON:009:1,2016-08-16T12:18:00Z,27.8398,-97.0727,1.9,1111122 
TCOON,ioos:station:TCOON:009:1,2016-08-16T13:18:00Z,27.8398,-97.0727,1.862,1111122 
TCOON,ioos:station:TCOON:009:1,2016-08-16T14:18:00Z,27.8398,-97.0727,1.866,1111122 
TCOON,ioos:station:TCOON:009:1,2016-08-16T15:18:00Z,27.8398,-97.0727,1.887,1111122 
TCOON,ioos:station:TCOON:009:1,2016-08-16T16:18:00Z,27.8398,-97.0727,1.846,1111122 
TCOON,ioos:station:TCOON:009:1,2016-08-16T17:18:00Z,27.8398,-97.0727,1.822,1111122 
TCOON,ioos:station:TCOON:009:1,2016-08-16T18:18:00Z,27.8398,-97.0727,1.851,1111122 
TCOON,ioos:station:TCOON:009:1,2016-08-16T19:18:00Z,27.8398,-97.0727,1.781,1111122 
TCOON,ioos:station:TCOON:009:1,2016-08-16T22:18:00Z,27.8398,-97.0727,1.653,1111122 
TCOON,ioos:station:TCOON:009:1,2016-08-16T23:18:00Z,27.8398,-97.0727,1.558,1111122 
TCOON,ioos:station:TCOON:009:1,2016-08-17T00:18:00Z,27.8398,-97.0727,1.512,1111122 
TCOON,ioos:station:TCOON:009:1,2016-08-17T01:18:00Z,27.8398,-97.0727,1.45,1111122 
TCOON,ioos:station:TCOON:009:1,2016-08-17T02:18:00Z,27.8398,-97.0727,1.527,1111122 
TCOON,ioos:station:TCOON:009:1,2016-08-17T03:18:00Z,27.8398,-97.0727,1.511,1111122 
TCOON,ioos:station:TCOON:009:1,2016-08-17T04:18:00Z,27.8398,-97.0727,1.6,1111122 
TCOON,ioos:station:TCOON:009:1,2016-08-17T05:12:00Z,27.8398,-97.0727,1.605,1111122 
TCOON,ioos:station:TCOON:009:1,2016-08-17T06:18:00Z,27.8398,-97.0727,1.713,1111122 
TCOON,ioos:station:TCOON:009:1,2016-08-17T07:18:00Z,27.8398,-97.0727,1.741,1111122 
TCOON,ioos:station:TCOON:009:1,2016-08-17T08:18:00Z,27.8398,-97.0727,1.801,1111122 
TCOON,ioos:station:TCOON:009:1,2016-08-17T09:18:00Z,27.8398,-97.0727,1.786,1111122 
TCOON,ioos:station:TCOON:009:1,2016-08-17T10:18:00Z,27.8398,-97.0727,1.825,1111122 
TCOON,ioos:station:TCOON:009:1,2016-08-17T11:18:00Z,27.8398,-97.0727,1.802,1111122 
TCOON,ioos:station:TCOON:009:1,2016-08-17T12:18:00Z,27.8398,-97.0727,1.809,1111122 
TCOON,ioos:station:TCOON:009:1,2016-08-17T13:18:00Z,27.8398,-97.0727,1.86,1111122 
TCOON,ioos:station:TCOON:009:1,2016-08-17T14:18:00Z,27.8398,-97.0727,1.841,1111122 
TCOON,ioos:station:TCOON:009:1,2016-08-17T15:18:00Z,27.8398,-97.0727,1.846,1111122 
TCOON,ioos:station:TCOON:009:1,2016-08-17T16:18:00Z,27.8398,-97.0727,1.848,1111122 
TCOON,ioos:station:TCOON:009:1,2016-08-17T17:18:00Z,27.8398,-97.0727,1.848,1111122 
TCOON,ioos:station:TCOON:009:1,2016-08-17T18:18:00Z,27.8398,-97.0727,1.847,1111122 
TCOON,ioos:station:TCOON:009:1,2016-08-17T19:18:00Z,27.8398,-97.0727,1.911,1111122 
TCOON,ioos:station:TCOON:009:1,2016-08-17T20:18:00Z,27.8398,-97.0727,1.781,1111122 
TCOON,ioos:station:TCOON:009:1,2016-08-17T21:18:00Z,27.8398,-97.0727,1.789,1111122 
TCOON,ioos:station:TCOON:009:1,2016-08-17T22:18:00Z,27.8398,-97.0727,1.657,1111122 
TCOON,ioos:station:TCOON:009:1,2016-08-17T23:18:00Z,27.8398,-97.0727,1.68,1111122 
TCOON,ioos:station:TCOON:009:1,2016-08-18T00:18:00Z,27.8398,-97.0727,1.641,1111122 
TCOON,ioos:station:TCOON:009:1,2016-08-18T01:18:00Z,27.8398,-97.0727,1.531,1111122 
TCOON,ioos:station:TCOON:009:1,2016-08-18T02:12:00Z,27.8398,-97.0727,1.585,1111122 
TCOON,ioos:station:TCOON:009:1,2016-08-18T03:18:00Z,27.8398,-97.0727,1.563,1111122 
TCOON,ioos:station:TCOON:009:1,2016-08-18T04:18:00Z,27.8398,-97.0727,1.606,1111122 
TCOON,ioos:station:TCOON:009:1,2016-08-18T05:18:00Z,27.8398,-97.0727,1.608,1111122 
TCOON,ioos:station:TCOON:009:1,2016-08-18T06:18:00Z,27.8398,-97.0727,1.682,1111122 
TCOON,ioos:station:TCOON:009:1,2016-08-18T07:18:00Z,27.8398,-97.0727,1.758,1111122 
TCOON,ioos:station:TCOON:009:1,2016-08-18T08:18:00Z,27.8398,-97.0727,1.843,1111122 
TCOON,ioos:station:TCOON:009:1,2016-08-18T09:18:00Z,27.8398,-97.0727,1.831,1111122 
TCOON,ioos:station:TCOON:009:1,2016-08-18T10:18:00Z,27.8398,-97.0727,1.824,1111122 
TCOON,ioos:station:TCOON:009:1,2016-08-18T11:18:00Z,27.8398,-97.0727,1.868,1111122 
TCOON,ioos:station:TCOON:009:1,2016-08-18T12:18:00Z,27.8398,-97.0727,1.814,1111122 
TCOON,ioos:station:TCOON:009:1,2016-08-18T13:18:00Z,27.8398,-97.0727,1.819,1111122 
TCOON,ioos:station:TCOON:009:1,2016-08-18T14:18:00Z,27.8398,-97.0727,1.868,1111122 
TCOON,ioos:station:TCOON:009:1,2016-08-18T15:18:00Z,27.8398,-97.0727,1.842,1111122 
TCOON,ioos:station:TCOON:009:1,2016-08-18T16:18:00Z,27.8398,-97.0727,1.841,1111122 
TCOON,ioos:station:TCOON:009:1,2016-08-18T17:18:00Z,27.8398,-97.0727,1.845,1111122 
TCOON,ioos:station:TCOON:009:1,2016-08-18T18:18:00Z,27.8398,-97.0727,1.865,1111122 
TCOON,ioos:station:TCOON:009:1,2016-08-18T19:24:00Z,27.8398,-97.0727,1.848,1111122 
TCOON,ioos:station:TCOON:009:1,2016-08-18T20:18:00Z,27.8398,-97.0727,1.855,1111122 
TCOON,ioos:station:TCOON:009:1,2016-08-18T21:12:00Z,27.8398,-97.0727,1.849,1111122 
TCOON,ioos:station:TCOON:009:1,2016-08-18T22:18:00Z,27.8398,-97.0727,1.786,1111122 
TCOON,ioos:station:TCOON:009:1,2016-08-18T23:18:00Z,27.8398,-97.0727,1.733,1111122 
TCOON,ioos:station:TCOON:009:1,2016-08-19T00:12:00Z,27.8398,-97.0727,1.683,1111122 
TCOON,ioos:station:TCOON:009:1,2016-08-19T01:18:00Z,27.8398,-97.0727,1.588,1111122 
TCOON,ioos:station:TCOON:009:1,2016-08-19T02:18:00Z,27.8398,-97.0727,1.563,1111122 
TCOON,ioos:station:TCOON:009:1,2016-08-19T03:18:00Z,27.8398,-97.0727,1.522,1111122 
TCOON,ioos:station:TCOON:009:1,2016-08-19T04:18:00Z,27.8398,-97.0727,1.578,1111122 
TCOON,ioos:station:TCOON:009:1,2016-08-19T05:18:00Z,27.8398,-97.0727,1.613,1111122 
TCOON,ioos:station:TCOON:009:1,2016-08-19T06:18:00Z,27.8398,-97.0727,1.64,1111122 
TCOON,ioos:station:TCOON:009:1,2016-08-19T07:18:00Z,27.8398,-97.0727,1.707,1111122 
TCOON,ioos:station:TCOON:009:1,2016-08-19T08:18:00Z,27.8398,-97.0727,1.785,1111122 
TCOON,ioos:station:TCOON:009:1,2016-08-19T09:18:00Z,27.8398,-97.0727,1.802,1111122 
TCOON,ioos:station:TCOON:009:1,2016-08-19T10:18:00Z,27.8398,-97.0727,1.817,1111122 
TCOON,ioos:station:TCOON:009:1,2016-08-19T11:18:00Z,27.8398,-97.0727,1.842,1111122 
TCOON,ioos:station:TCOON:009:1,2016-08-19T12:18:00Z,27.8398,-97.0727,1.805,1111122 
TCOON,ioos:station:TCOON:009:1,2016-08-19T13:18:00Z,27.8398,-97.0727,1.789,1111122 
TCOON,ioos:station:TCOON:009:1,2016-08-19T14:18:00Z,27.8398,-97.0727,1.816,1111122 
TCOON,ioos:station:TCOON:009:1,2016-08-19T15:12:00Z,27.8398,-97.0727,1.804,1111122 
TCOON,ioos:station:TCOON:009:1,2016-08-19T16:18:00Z,27.8398,-97.0727,1.817,1111122 
TCOON,ioos:station:TCOON:009:1,2016-08-19T17:18:00Z,27.8398,-97.0727,1.801,1111122 
TCOON,ioos:station:TCOON:009:1,2016-08-19T18:18:00Z,27.8398,-97.0727,1.834,1111122 
TCOON,ioos:station:TCOON:009:1,2016-08-19T19:18:00Z,27.8398,-97.0727,1.804,1111122 
TCOON,ioos:station:TCOON:009:1,2016-08-19T20:12:00Z,27.8398,-97.0727,1.862,1111122 
TCOON,ioos:station:TCOON:009:1,2016-08-19T21:18:00Z,27.8398,-97.0727,1.862,1111122 